KLM060 EHAM-ELLX

Flight info

Callsign KLM060
Flight time 0h 40m
Altitude 23000
Route LOPIK N852 LNO
Aircraft A319/M-SDE3FGHIRWY/LB1

Departure

Time 2026-05-05 03:18
Airport Amsterdam Airport Schiphol (EHAM)

Arrival

Time 2026-05-05 03:59
Airport Luxembourg-Findel International Airport (ELLX)
Time Latitude Longitude Altitude Speed Heading
2026-05-05 03:07 52.30706 4.77279 10 ft 0 kts
2026-05-05 03:13 52.30703 4.77278 10 ft 2 kts
2026-05-05 03:13 52.30688 4.77277 9 ft 2 kts
2026-05-05 03:14 52.30673 4.77276 9 ft 2 kts
2026-05-05 03:14 52.30658 4.77275 9 ft 2 kts 20°
2026-05-05 03:14 52.30647 4.77260 9 ft 2 kts 60°
2026-05-05 03:14 52.30643 4.77243 8 ft 0 kts 88°
2026-05-05 03:15 52.30643 4.77231 8 ft 1 kts 92°
2026-05-05 03:15 52.30643 4.77229 8 ft 0 kts 92°
2026-05-05 03:16 52.30643 4.77238 8 ft 2 kts 92°
2026-05-05 03:16 52.30642 4.77327 8 ft 9 kts 91°
2026-05-05 03:17 52.30634 4.77442 8 ft 11 kts 110°
2026-05-05 03:17 52.30576 4.77544 6 ft 14 kts 146°
2026-05-05 03:17 52.30506 4.77608 4 ft 12 kts 151°
2026-05-05 03:17 52.30420 4.77615 2 ft 13 kts 210°
2026-05-05 03:18 52.30336 4.77445 2 ft 43 kts 238°
2026-05-05 03:18 52.30033 4.76658 -3 ft 117 kts 239°
2026-05-05 03:18 52.29491 4.75295 98 ft 161 kts 231°
2026-05-05 03:18 52.28888 4.73742 692 ft 166 kts 242°
2026-05-05 03:19 52.27664 4.70517 2000 ft 175 kts 239°
2026-05-05 03:19 52.26799 4.69050 2494 ft 189 kts 209°
2026-05-05 03:19 52.25538 4.68481 3169 ft 190 kts 179°
2026-05-05 03:20 52.24250 4.68877 3749 ft 197 kts 154°
2026-05-05 03:20 52.23157 4.70152 4441 ft 196 kts 129°
2026-05-05 03:20 52.22403 4.72011 5093 ft 201 kts 117°
2026-05-05 03:20 52.21698 4.74072 5550 ft 221 kts 117°
2026-05-05 03:21 52.20921 4.76339 6013 ft 241 kts 118°
2026-05-05 03:21 52.20070 4.78800 6551 ft 260 kts 118°
2026-05-05 03:21 52.19149 4.81463 7134 ft 276 kts 118°
2026-05-05 03:21 52.18200 4.84183 7946 ft 283 kts 119°
2026-05-05 03:22 52.17230 4.86956 8835 ft 286 kts 119°
2026-05-05 03:22 52.16225 4.89771 9681 ft 291 kts 123°
2026-05-05 03:22 52.14918 4.92227 10477 ft 297 kts 139°
2026-05-05 03:22 52.13189 4.94155 11279 ft 302 kts 149°
2026-05-05 03:23 52.11388 4.95838 12058 ft 307 kts 150°
2026-05-05 03:23 52.09529 4.97542 12830 ft 311 kts 150°
2026-05-05 03:23 52.07630 4.99292 13572 ft 315 kts 149°
2026-05-05 03:23 52.05734 5.01056 14292 ft 320 kts 149°
2026-05-05 03:24 52.03797 5.02872 15037 ft 323 kts 149°
2026-05-05 03:24 52.01873 5.04679 15730 ft 326 kts 149°
2026-05-05 03:24 51.99909 5.06525 16430 ft 329 kts 149°
2026-05-05 03:24 51.97918 5.08393 17104 ft 333 kts 150°
2026-05-05 03:25 51.95911 5.10273 17759 ft 336 kts 150°
2026-05-05 03:25 51.93876 5.12057 18393 ft 339 kts 155°
2026-05-05 03:25 51.91697 5.13507 19041 ft 342 kts 162°
2026-05-05 03:25 51.89425 5.14608 19682 ft 344 kts 165°
2026-05-05 03:26 51.87113 5.15632 20327 ft 346 kts 166°
2026-05-05 03:26 51.84786 5.16649 20966 ft 349 kts 166°
2026-05-05 03:26 51.82439 5.17675 21600 ft 351 kts 166°
2026-05-05 03:26 51.80075 5.18713 22219 ft 354 kts 166°
2026-05-05 03:27 51.77705 5.19756 22722 ft 356 kts 166°
2026-05-05 03:27 51.75331 5.20803 22899 ft 357 kts 166°
2026-05-05 03:27 51.72929 5.21860 22902 ft 356 kts 166°
2026-05-05 03:27 51.70545 5.22909 22895 ft 356 kts 166°
2026-05-05 03:28 51.68178 5.23953 22894 ft 357 kts 166°
2026-05-05 03:28 51.65793 5.25000 22902 ft 357 kts 166°
2026-05-05 03:28 51.63385 5.26059 22898 ft 357 kts 166°
2026-05-05 03:28 51.60997 5.27107 22892 ft 357 kts 166°
2026-05-05 03:29 51.58622 5.28148 22901 ft 357 kts 166°
2026-05-05 03:29 51.56220 5.29200 22903 ft 357 kts 166°
2026-05-05 03:29 51.53840 5.30241 22899 ft 357 kts 166°
2026-05-05 03:29 51.51428 5.31294 22859 ft 357 kts 166°
2026-05-05 03:30 51.49042 5.32334 22587 ft 355 kts 166°
2026-05-05 03:30 51.46690 5.33360 22323 ft 353 kts 166°
2026-05-05 03:30 51.44338 5.34382 22059 ft 352 kts 167°
2026-05-05 03:30 51.41956 5.35417 21791 ft 351 kts 166°
2026-05-05 03:31 51.39642 5.36426 21530 ft 349 kts 166°
2026-05-05 03:31 51.37307 5.37442 21273 ft 348 kts 166°
2026-05-05 03:31 51.34970 5.38462 21025 ft 348 kts 166°
2026-05-05 03:31 51.32643 5.39476 20775 ft 347 kts 166°
2026-05-05 03:32 51.30308 5.40493 20516 ft 346 kts 166°
2026-05-05 03:32 51.28003 5.41495 20259 ft 345 kts 166°
2026-05-05 03:32 51.25711 5.42409 20007 ft 343 kts 169°
2026-05-05 03:32 51.23375 5.43194 19760 ft 342 kts 169°
2026-05-05 03:33 51.21046 5.43971 19504 ft 341 kts 169°
2026-05-05 03:33 51.18739 5.44749 19246 ft 340 kts 168°
2026-05-05 03:33 51.16450 5.45689 18997 ft 339 kts 165°
2026-05-05 03:33 51.14176 5.46683 18739 ft 338 kts 165°
2026-05-05 03:34 51.11930 5.47666 18485 ft 337 kts 165°
2026-05-05 03:34 51.09690 5.48645 18234 ft 336 kts 165°
2026-05-05 03:34 51.07439 5.49629 17986 ft 335 kts 165°
2026-05-05 03:34 51.05193 5.50608 17721 ft 334 kts 165°
2026-05-05 03:35 51.02976 5.51575 17462 ft 333 kts 165°
2026-05-05 03:35 51.00738 5.52548 17210 ft 332 kts 165°
2026-05-05 03:35 50.98521 5.53512 16959 ft 331 kts 165°
2026-05-05 03:35 50.96317 5.54470 16696 ft 329 kts 165°
2026-05-05 03:36 50.94112 5.55426 16449 ft 328 kts 165°
2026-05-05 03:36 50.91932 5.56372 16198 ft 326 kts 165°
2026-05-05 03:36 50.89733 5.57323 15949 ft 325 kts 165°
2026-05-05 03:36 50.87569 5.58260 15701 ft 324 kts 165°
2026-05-05 03:37 50.85396 5.59199 15454 ft 323 kts 165°
2026-05-05 03:37 50.83246 5.60127 15206 ft 322 kts 165°
2026-05-05 03:37 50.81082 5.61059 14955 ft 321 kts 165°
2026-05-05 03:37 50.78950 5.61976 14708 ft 320 kts 165°
2026-05-05 03:38 50.76826 5.62889 14460 ft 318 kts 165°
2026-05-05 03:38 50.74683 5.63810 14205 ft 317 kts 165°
2026-05-05 03:38 50.72575 5.64716 13956 ft 316 kts 165°
2026-05-05 03:38 50.70460 5.65623 13707 ft 314 kts 165°
2026-05-05 03:39 50.68357 5.66524 13460 ft 312 kts 165°
2026-05-05 03:39 50.66270 5.67462 13214 ft 311 kts 164°
2026-05-05 03:39 50.64234 5.68412 12969 ft 308 kts 164°
2026-05-05 03:39 50.62171 5.69376 12720 ft 306 kts 164°
2026-05-05 03:40 50.60150 5.70317 12473 ft 304 kts 165°
2026-05-05 03:40 50.58156 5.71307 12234 ft 301 kts 162°
2026-05-05 03:40 50.56184 5.72456 11996 ft 300 kts 160°
2026-05-05 03:40 50.54234 5.73602 11747 ft 298 kts 160°
2026-05-05 03:41 50.52322 5.74725 11497 ft 295 kts 160°
2026-05-05 03:41 50.50408 5.75848 11249 ft 294 kts 160°
2026-05-05 03:41 50.48503 5.76966 11003 ft 292 kts 160°
2026-05-05 03:41 50.46603 5.78080 10756 ft 290 kts 160°
2026-05-05 03:42 50.44740 5.79172 10512 ft 287 kts 161°
2026-05-05 03:42 50.42872 5.80263 10258 ft 284 kts 160°
2026-05-05 03:42 50.41034 5.81337 10008 ft 282 kts 160°
2026-05-05 03:42 50.39216 5.82398 9782 ft 280 kts 160°
2026-05-05 03:43 50.37390 5.83463 9657 ft 281 kts 160°
2026-05-05 03:43 50.35568 5.84525 9532 ft 280 kts 161°
2026-05-05 03:43 50.33729 5.85595 9407 ft 280 kts 160°
2026-05-05 03:43 50.31905 5.86655 9281 ft 279 kts 160°
2026-05-05 03:44 50.30098 5.87704 9157 ft 279 kts 160°
2026-05-05 03:44 50.28279 5.88760 9032 ft 279 kts 161°
2026-05-05 03:44 50.26478 5.89805 8907 ft 278 kts 161°
2026-05-05 03:44 50.24661 5.90857 8781 ft 277 kts 161°
2026-05-05 03:45 50.22866 5.91894 8657 ft 277 kts 160°
2026-05-05 03:45 50.21063 5.92937 8531 ft 276 kts 160°
2026-05-05 03:45 50.19253 5.93984 8403 ft 276 kts 161°
2026-05-05 03:45 50.17467 5.95016 8278 ft 275 kts 160°
2026-05-05 03:46 50.15683 5.96046 8153 ft 275 kts 160°
2026-05-05 03:46 50.13885 5.97084 8025 ft 274 kts 161°
2026-05-05 03:46 50.12094 5.98118 7898 ft 273 kts 160°
2026-05-05 03:46 50.10319 5.99140 7771 ft 273 kts 161°
2026-05-05 03:47 50.08524 6.00174 7643 ft 272 kts 161°
2026-05-05 03:47 50.06772 6.01181 7519 ft 272 kts 161°
2026-05-05 03:47 50.05003 6.02196 7392 ft 271 kts 161°
2026-05-05 03:47 50.03222 6.03218 7265 ft 271 kts 161°
2026-05-05 03:48 50.01469 6.04225 7140 ft 271 kts 161°
2026-05-05 03:48 49.99697 6.05240 7005 ft 270 kts 160°
2026-05-05 03:48 49.97941 6.06245 6880 ft 270 kts 160°
2026-05-05 03:48 49.96184 6.07249 6752 ft 269 kts 160°
2026-05-05 03:49 49.94426 6.08256 6623 ft 268 kts 160°
2026-05-05 03:49 49.92677 6.09256 6497 ft 267 kts 160°
2026-05-05 03:49 49.90945 6.10245 6370 ft 265 kts 160°
2026-05-05 03:49 49.89233 6.11222 6234 ft 265 kts 160°
2026-05-05 03:50 49.87496 6.12225 6077 ft 264 kts 158°
2026-05-05 03:50 49.86010 6.13843 5884 ft 266 kts 130°
2026-05-05 03:50 49.85108 6.16354 5694 ft 269 kts 114°
2026-05-05 03:50 49.84386 6.19017 5430 ft 268 kts 114°
2026-05-05 03:51 49.83668 6.21631 5131 ft 267 kts 114°
2026-05-05 03:51 49.82933 6.24271 4819 ft 265 kts 115°
2026-05-05 03:51 49.82194 6.26888 4504 ft 264 kts 115°
2026-05-05 03:51 49.81471 6.29437 4323 ft 256 kts 115°
2026-05-05 03:52 49.80774 6.31897 4310 ft 241 kts 115°
2026-05-05 03:52 49.80119 6.34196 4300 ft 228 kts 115°
2026-05-05 03:52 49.79498 6.36378 4276 ft 216 kts 115°
2026-05-05 03:52 49.78869 6.38411 4221 ft 204 kts 126°
2026-05-05 03:53 49.77853 6.39795 4126 ft 192 kts 151°
2026-05-05 03:53 49.76680 6.40796 4033 ft 192 kts 152°
2026-05-05 03:53 49.75515 6.41779 3894 ft 193 kts 152°
2026-05-05 03:53 49.74340 6.42787 3634 ft 188 kts 151°
2026-05-05 03:54 49.73225 6.43756 3326 ft 179 kts 152°
2026-05-05 03:54 49.72090 6.44178 3066 ft 165 kts 188°
2026-05-05 03:54 49.71164 6.43410 2962 ft 143 kts 222°
2026-05-05 03:54 49.70535 6.42244 2958 ft 139 kts 233°
2026-05-05 03:55 49.70023 6.40989 2965 ft 138 kts 237°
2026-05-05 03:55 49.69553 6.39724 2967 ft 137 kts 238°
2026-05-05 03:55 49.69076 6.38427 2969 ft 137 kts 238°
2026-05-05 03:55 49.68605 6.37149 2969 ft 137 kts 238°
2026-05-05 03:56 49.68130 6.35871 2966 ft 137 kts 238°
2026-05-05 03:56 49.67654 6.34596 2821 ft 137 kts 238°
2026-05-05 03:56 49.67178 6.33319 2639 ft 137 kts 238°
2026-05-05 03:56 49.66705 6.32054 2459 ft 136 kts 238°
2026-05-05 03:57 49.66239 6.30805 2282 ft 136 kts 238°
2026-05-05 03:57 49.65765 6.29532 2102 ft 135 kts 238°
2026-05-05 03:57 49.65295 6.28274 1920 ft 135 kts 238°
2026-05-05 03:57 49.64829 6.27023 1741 ft 135 kts 238°
2026-05-05 03:58 49.64364 6.25774 1559 ft 134 kts 238°
2026-05-05 03:58 49.63900 6.24530 1379 ft 134 kts 238°
2026-05-05 03:58 49.63445 6.23308 1221 ft 129 kts 239°
2026-05-05 03:58 49.63109 6.22411 1203 ft 57 kts 239°
2026-05-05 03:59 49.63056 6.22269 1207 ft 7 kts 240°
2026-05-05 03:59 49.63047 6.22204 1209 ft 5 kts 281°
2026-05-05 03:59 49.63081 6.22121 1213 ft 11 kts 320°
2026-05-05 03:59 49.63145 6.22072 1217 ft 5 kts 334°